ZHONGXING-6D

Last updated on Tue Jul 01 2025 00:02:48 GMT+0000 (Coordinated Universal Time)

1 52255U 22038A 25181.60317410 -.00000354 00000+0 00000+0 0 9994 2 52255 0.0114 323.7254 0000418 220.4464 76.8441 1.00271965 11898
UTC large
Height (km)
Speed (km/s)
/
Latitude / Longitude
Inclination (degrees)
Orbital Period (minutes)
Azimuth
Elevation
Range (km)
Doppler Factor

Next 0 passes for location: London (51.5072 / 0.1276)

Sorry there are no passes over London.